CW6245 Weather Reports


time (UTC)temp
C
wind
direction
speed
KPH
gust
KPH
rain 1hr
cm
rain 24hr
cm
rain mn
cm
humidity
%
barometer
mb
20260831234733 18 198 1.6 9.7 0.00 0.00 0.00 56 732.8
20260831234230 18 233 1.6 8.0 0.00 0.00 0.00 56 732.8
20260831233730 18 25 0.0 9.7 0.00 0.00 0.00 57 732.8
20260831233241 17 245 0.0 6.4 0.00 0.00 0.00 58 733.1
20260831232730 17 327 3.2 11.3 0.00 0.00 0.00 57 733.1
20260831232233 17 329 3.2 9.7 0.00 0.00 0.00 59 733.1
20260831231736 17 319 3.2 16.1 0.00 0.00 0.00 58 733.1
20260831231230 17 292 1.6 12.9 0.00 0.00 0.00 58 733.1
20260831230730 18 291 3.2 11.3 0.00 0.00 0.00 58 733.1
20260831230230 17 223 1.6 8.0 0.00 0.00 0.00 58 733.1
20260831225736 17 220 1.6 16.1 0.00 0.00 0.00 57 733.1
20260831225230 17 309 8.0 14.5 0.00 0.00 0.00 59 733.1
20260831224730 17 271 1.6 11.3 0.00 0.00 0.00 61 733.1
20260831224233 18 194 3.2 11.3 0.00 0.00 0.00 60 733.1
20260831223733 18 283 3.2 12.9 0.00 0.00 0.00 57 733.1
20260831223233 18 238 1.6 12.9 0.00 0.00 0.00 58 733.1
20260831222730 18 148 1.6 8.0 0.00 0.00 0.00 57 733.1
20260831222233 18 271 1.6 12.9 0.00 0.00 0.00 56 733.1
20260831221730 18 319 1.6 9.7 0.00 0.00 0.00 61 733.1
20260831221230 17 265 3.2 16.1 0.00 0.00 0.00 60 733.1
20260831220733 18 269 1.6 8.0 0.00 0.00 0.00 56 733.5
20260831220230 17 264 1.6 11.3 0.00 0.00 0.00 60 733.5
20260831215733 17 322 4.8 14.5 0.00 0.00 0.00 61 733.5
20260831215230 17 307 6.4 16.1 0.00 0.00 0.00 62 733.5
20260831214736 17 307 1.6 11.3 0.00 0.00 0.00 57 733.5
20260831214233 17 289 4.8 14.5 0.00 0.00 0.00 58 733.5
20260831213730 18 301 4.8 12.9 0.00 0.00 0.00 58 733.5
20260831213230 18 304 4.8 16.1 0.00 0.00 0.00 57 733.5
20260831212730 18 278 3.2 17.7 0.00 0.00 0.00 57 733.5
20260831212230 17 242 1.6 14.5 0.00 0.00 0.00 59 733.8
20260831211730 17 333 3.2 20.9 0.00 0.00 0.00 61 733.8
20260831211233 17 330 4.8 24.1 0.00 0.00 0.00 61 733.8
20260831210736 17 309 8.0 19.3 0.00 0.00 0.00 61 733.8
20260831210230 17 315 4.8 20.9 0.00 0.00 0.00 58 733.8
20260831205730 18 326 8.0 16.1 0.00 0.00 0.00 56 733.8
20260831205230 17 270 1.6 22.5 0.00 0.00 0.00 61 733.8
20260831204733 17 331 3.2 17.7 0.00 0.00 0.00 57 733.8
20260831204231 17 307 4.8 16.1 0.00 0.00 0.00 57 733.8
20260831203733 18 317 4.8 12.9 0.00 0.00 0.00 54 733.8
20260831203230 18 250 1.6 16.1 0.00 0.00 0.00 57 733.8
20260831202733 18 305 8.0 20.9 0.00 0.00 0.00 56 733.8
20260831202233 18 321 3.2 19.3 0.00 0.00 0.00 54 733.8
20260831201733 18 242 1.6 12.9 0.00 0.00 0.00 54 733.8
20260831201233 17 94 3.2 17.7 0.00 0.00 0.00 56 733.8
20260831200733 17 296 6.4 17.7 0.00 0.00 0.00 55 733.8
20260831200230 17 286 1.6 12.9 0.00 0.00 0.00 55 733.8
20260831195730 17 274 1.6 11.3 0.00 0.00 0.00 56 733.8
20260831195230 17 300 6.4 19.3 0.00 0.00 0.00 55 733.8
20260831194730 16 353 3.2 12.9 0.00 0.00 0.00 56 733.8
20260831194230 16 334 3.2 16.1 0.00 0.00 0.00 56 733.8
20260831193733 16 24 3.2 24.1 0.00 0.00 0.00 57 734.2
20260831193230 16 336 3.2 16.1 0.00 0.00 0.00 56 733.8
20260831192730 17 341 4.8 19.3 0.00 0.00 0.00 55 734.2
20260831192230 17 321 8.0 19.3 0.00 0.00 0.00 59 734.2
20260831191730 17 316 4.8 14.5 0.00 0.00 0.00 56 734.2
20260831191230 17 309 3.2 11.3 0.00 0.00 0.00 57 734.2
20260831190736 17 316 3.2 14.5 0.00 0.00 0.00 56 734.2
20260831190233 17 291 3.2 14.5 0.00 0.00 0.00 57 734.2
20260831185730 17 331 4.8 12.9 0.00 0.00 0.00 54 734.2
20260831185230 18 292 4.8 14.5 0.00 0.00 0.00 53 734.2
20260831184730 18 325 0.0 11.3 0.00 0.00 0.00 54 734.2
20260831184230 18 272 0.0 9.7 0.00 0.00 0.00 57 734.2
20260831183730 17 304 1.6 14.5 0.00 0.00 0.00 54 734.2
20260831183230 17 292 1.6 12.9 0.00 0.00 0.00 56 734.2
20260831182730 18 211 4.8 12.9 0.00 0.00 0.00 52 734.2
20260831182230 17 256 1.6 9.7 0.00 0.00 0.00 54 734.2
20260831181733 17 293 3.2 14.5 0.00 0.00 0.00 57 734.2
20260831181230 17 193 1.6 8.0 0.00 0.00 0.00 51 734.2
20260831180730 17 123 0.0 11.3 0.00 0.00 0.00 56 734.2
20260831180231 17 16 0.0 6.4 0.00 0.00 0.00 56 734.2
20260831175730 17 275 3.2 14.5 0.00 0.00 0.00 55 734.2
20260831175230 17 193 1.6 12.9 0.00 0.00 0.00 57 734.2
20260831174733 17 309 1.6 14.5 0.00 0.00 0.00 55 734.2
20260831174230 17 250 1.6 8.0 0.00 0.00 0.00 53 734.2
20260831173730 17 331 1.6 9.7 0.00 0.00 0.00 53 734.2
20260831173230 17 341 1.6 11.3 0.00 0.00 0.00 54 734.2
20260831172730 17 289 1.6 8.0 0.00 0.00 0.00 51 734.2
20260831172230 17 246 1.6 8.0 0.00 0.00 0.00 56 733.8
20260831171735 16 199 1.6 11.3 0.00 0.00 0.00 56 733.8
20260831171230 16 164 0.0 8.0 0.00 0.00 0.00 59 733.8
20260831170733 17 338 3.2 9.7 0.00 0.00 0.00 56 733.8
20260831170230 17 329 4.8 11.3 0.00 0.00 0.00 51 733.8
20260831165730 17 65 1.6 14.5 0.00 0.00 0.00 49 733.8
20260831165233 17 198 1.6 8.0 0.00 0.00 0.00 49 733.8
20260831164730 17 348 0.0 8.0 0.00 0.00 0.00 50 733.8
20260831164233 17 210 1.6 14.5 0.00 0.00 0.00 48 733.8
20260831163730 17 217 3.2 6.4 0.00 0.00 0.00 48 733.8
20260831163235 17 207 1.6 8.0 0.00 0.00 0.00 47 733.8
20260831162730 17 197 4.8 8.0 0.00 0.00 0.00 49 733.8
20260831162233 17 307 3.2 8.0 0.00 0.00 0.00 48 733.8
20260831161730 17 206 1.6 3.2 0.00 0.00 0.00 51 733.8
20260831161233 16 286 0.0 6.4 0.00 0.00 0.00 50 733.8
20260831160730 16 224 1.6 6.4 0.00 0.00 0.00 52 733.5
20260831160230 16 142 3.2 8.0 0.00 0.00 0.00 50 733.8
20260831155733 15 193 3.2 8.0 0.00 0.00 0.00 51 733.8
20260831155230 15 164 3.2 8.0 0.00 0.00 0.00 52 733.5
20260831154730 15 185 3.2 6.4 0.00 0.00 0.00 52 733.8
20260831154230 15 196 1.6 9.7 0.00 0.00 0.00 51 733.8
20260831153730 15 187 4.8 9.7 0.00 0.00 0.00 50 733.5
20260831153235 15 190 3.2 9.7 0.00 0.00 0.00 51 733.5
20260831152733 15 206 3.2 11.3 0.00 0.00 0.00 54 733.5
20260831152230 15 210 3.2 9.7 0.00 0.00 0.00 52 733.5
20260831151730 14 183 6.4 9.7 0.00 0.00 0.00 54 733.5
20260831151230 14 179 4.8 8.0 0.00 0.00 0.00 54 733.5
20260831150730 14 175 6.4 8.0 0.00 0.00 0.00 55 733.5
20260831150230 14 180 4.8 6.4 0.00 0.00 0.00 55 733.5
20260831145730 14 189 4.8 8.0 0.00 0.00 0.00 54 733.5
20260831145230 15 186 4.8 9.7 0.00 0.00 0.00 55 733.5
20260831144736 14 200 3.2 11.3 0.00 0.00 0.00 54 733.5
20260831144230 14 184 6.4 11.3 0.00 0.00 0.00 53 733.5
20260831143730 14 185 8.0 11.3 0.00 0.00 0.00 54 733.5
20260831143230 14 188 8.0 11.3 0.00 0.00 0.00 54 733.1
20260831142730 14 184 9.7 11.3 0.00 0.00 0.00 54 733.1
20260831142230 14 187 9.7 12.9 0.00 0.00 0.00 56 733.1
20260831141731 13 187 9.7 14.5 0.00 0.00 0.00 55 733.1
20260831141233 13 189 8.0 12.9 0.00 0.00 0.00 57 733.1
20260831140730 13 186 9.7 12.9 0.00 0.00 0.00 57 733.1
20260831140233 13 191 8.0 14.5 0.00 0.00 0.00 57 733.1
20260831135736 13 193 8.0 12.9 0.00 0.00 0.00 57 733.1
20260831135230 13 185 9.7 12.9 0.00 0.00 0.00 57 732.8
20260831134730 13 188 9.7 12.9 0.00 0.00 0.00 57 732.8
20260831134231 13 190 9.7 12.9 0.00 0.00 0.00 57 732.8
20260831133730 13 187 9.7 14.5 0.00 0.00 0.00 57 732.8
20260831133233 13 188 9.7 14.5 0.00 0.00 0.00 57 732.8
20260831132736 13 189 9.7 14.5 0.00 0.00 0.00 57 732.8
20260831132233 13 187 11.3 14.5 0.00 0.00 0.00 58 732.8
20260831131730 13 190 9.7 14.5 0.00 0.00 0.00 58 732.8
20260831131230 13 188 9.7 12.9 0.00 0.00 0.00 58 732.5
20260831130730 13 191 8.0 12.9 0.00 0.00 0.00 58 732.5
20260831130230 13 186 9.7 12.9 0.00 0.00 0.00 59 732.5
20260831125730 13 186 9.7 14.5 0.00 0.00 0.00 59 732.5
20260831125230 13 184 9.7 14.5 0.00 0.00 0.00 59 732.5
20260831124730 13 185 9.7 16.1 0.00 0.00 0.00 59 732.5
20260831124230 13 184 9.7 12.9 0.00 0.00 0.00 60 732.5
20260831123733 13 185 9.7 12.9 0.00 0.00 0.00 60 732.5
20260831123233 13 187 9.7 12.9 0.00 0.00 0.00 60 732.5
20260831122736 13 189 9.7 12.9 0.00 0.00 0.00 60 732.5
20260831122230 13 188 9.7 14.5 0.00 0.00 0.00 60 732.5
20260831121733 13 194 9.7 14.5 0.00 0.00 0.00 60 732.5
20260831121230 13 196 6.4 12.9 0.00 0.00 0.00 60 732.5
20260831120733 13 199 6.4 12.9 0.00 0.00 0.00 60 732.5
20260831120230 13 198 6.4 11.3 0.00 0.00 0.00 61 732.5
20260831115730 13 195 8.0 12.9 0.00 0.00 0.00 61 732.5
20260831115230 13 199 6.4 12.9 0.00 0.00 0.00 61 732.5
20260831114730 13 192 8.0 12.9 0.00 0.00 0.00 61 732.5
20260831114230 13 190 8.0 12.9 0.00 0.00 0.00 61 732.5
20260831113730 13 197 6.4 12.9 0.00 0.00 0.00 60 732.5
20260831113230 13 199 6.4 12.9 0.00 0.00 0.00 61 732.5
20260831112733 13 203 4.8 9.7 0.00 0.00 0.00 61 732.5
20260831112230 13 196 6.4 9.7 0.00 0.00 0.00 60 732.5
20260831111730 13 202 4.8 11.3 0.00 0.00 0.00 60 732.5
20260831111230 13 206 4.8 11.3 0.00 0.00 0.00 60 732.5
20260831110733 13 204 4.8 11.3 0.00 0.00 0.00 60 732.5
20260831110230 13 203 4.8 9.7 0.00 0.00 0.00 60 732.5
20260831105730 13 206 4.8 9.7 0.00 0.00 0.00 60 732.5
20260831105230 13 203 4.8 9.7 0.00 0.00 0.00 60 732.5
20260831104732 13 202 4.8 9.7 0.00 0.00 0.00 59 732.5
20260831104230 13 209 3.2 11.3 0.00 0.00 0.00 58 732.8
20260831103730 13 215 3.2 9.7 0.00 0.00 0.00 58 732.8
20260831103230 13 213 3.2 9.7 0.00 0.00 0.00 57 732.8
20260831102730 13 211 3.2 9.7 0.00 0.00 0.00 58 732.5
20260831102230 14 207 4.8 9.7 0.00 0.00 0.00 57 732.5
20260831101730 14 206 4.8 11.3 0.00 0.00 0.00 57 732.5
20260831101230 14 205 6.4 12.9 0.00 0.00 0.00 57 732.5
20260831100730 13 203 6.4 11.3 0.00 0.00 0.00 57 732.5
20260831100230 13 204 6.4 12.9 0.00 0.00 0.00 59 732.5
20260831095730 13 202 6.4 16.1 0.00 0.00 0.00 61 732.5
20260831095230 13 203 6.4 12.9 0.00 0.00 0.00 61 732.5
20260831094730 13 204 8.0 14.5 0.00 0.00 0.00 61 732.5
20260831094230 13 201 8.0 17.7 0.00 0.00 0.00 61 732.5
20260831093730 13 201 8.0 17.7 0.00 0.00 0.00 62 732.5
20260831093233 13 197 9.7 17.7 0.00 0.00 0.00 62 732.5
20260831092730 13 199 9.7 16.1 0.00 0.00 0.00 62 732.5
20260831092233 13 199 9.7 17.7 0.00 0.00 0.00 62 732.8
20260831091730 13 199 9.7 19.3 0.00 0.00 0.00 62 732.8
20260831091238 13 196 11.3 19.3 0.00 0.00 0.00 63 732.5
20260831090732 13 196 11.3 19.3 0.00 0.00 0.00 63 732.8
20260831090230 13 194 11.3 19.3 0.00 0.00 0.00 63 732.8
20260831085730 13 195 11.3 19.3 0.00 0.00 0.00 63 732.8
20260831085233 13 196 11.3 17.7 0.00 0.00 0.00 63 732.8
20260831084730 13 197 11.3 19.3 0.00 0.00 0.00 63 732.8
20260831084230 13 198 11.3 22.5 0.00 0.00 0.00 64 732.8
20260831083730 13 195 12.9 20.9 0.00 0.00 0.00 64 732.8
20260831083233 13 192 11.3 19.3 0.00 0.00 0.00 64 732.8
20260831082733 13 191 12.9 19.3 0.00 0.00 0.00 64 733.1
20260831082230 13 191 12.9 19.3 0.00 0.00 0.00 64 733.1
20260831081730 13 196 11.3 20.9 0.00 0.00 0.00 64 733.1
20260831081230 13 198 11.3 20.9 0.00 0.00 0.00 64 733.1
20260831080730 13 195 11.3 19.3 0.00 0.00 0.00 64 733.1
20260831080230 13 194 11.3 19.3 0.00 0.00 0.00 63 733.1
20260831075736 13 196 11.3 22.5 0.00 0.00 0.00 63 733.1